Cosmos 2219 - Orbit

View from above orbital plane
View from above orbital plane
View from above satellite
View from above satellite

Ground track
Ground track

The orbit data is extracted from the following two-line orbital elements,

1 22219U 92076A   13140.31597078 -.00000228  00000-0 -96334-4 0  2322
2 22219 071.0599 067.4014 0017059 148.1913 357.2039 14.13421908 57824
Epoch (UTC): 20 May 2013 07:34:59
Eccentricity: 0.0017059
inclination: 71.0599°
perigee height: 835 km
apogee height: 860 km
right ascension of ascending node: 67.4014°
argument of perigee: 148.1913°
revolutions per day: 14.13421908
mean anomaly at epoch: 357.2039°
orbit number at epoch: 5782

The dashed part of the orbit path shows where the satellite is in the earth's shadow,  

Developed and maintained by Chris Peat, Heavens-Above GmbH. Please read the updated FAQ before sending e-mail. Imprint. DLR